Location: Unspecified
(56.5167°N, 0.0000°E)
Time: 08:52:39
(UTC+02:00)

Resurs 1-4 Rocket - Pass Details

Date: 19 January 2018
Orbit: 799 x 814 km, 98.5° (Epoch: 24 May)

Event Time Altitude Azimuth Distance (km) Brightness Sun altitude
Rises 04:38:04 0° 13° (NNE) 3,332 5.7 -37.6°
Reaches altitude 10° 04:40:34 10° 6° (N) 2,400 4.8 -37.2°
Enters shadow 04:40:37 10° 5° (N) 2,384 4.8 -37.2°
